Weather in Kurun-Uryakh

Russia / Khabarovsk Krai     58°39′42″N   137°20′32″E
temp.,
°C
wind,
m/s
gust,
m/s
humid.,
%
clouds,
%
prec.,
mm/h
press.,
hPa
HPBL,
m
27 february, sat
sat2701:00−35wnw11968 0.0 103519
04:00−35nw00964 0.0 103419
07:00−36se00960 0.0 103319
10:00−30se11940 0.0 103186
13:00−24se118947 0.0 1028247
16:00−22e128942 0.0 1024269
19:00−27ene119548 0.0 102319
22:00−28ne229674 0.0 102124
28 february, sun
sun2801:00−29ene1196100 0.0 101921
04:00−29ene1295100 0.0 101745
07:00−27ne1298100 0.1 1018100
10:00−24ne1297100 0.6 1018204
13:00−20ene1191100 0.3 1019445
16:00−19wsw0192100 0.5 1019396
19:00−22wnw3695100 0.3 1021331
22:00−25wnw2294100 0.3 102362
1 march, mon
mon101:00−27wnw2295100 0.0 102377
04:00−28w2296100 0.1 102453
07:00−29w2295100 0.1 102574
10:00−29w2489100 0.1 1025647
13:00−27wnw2582100 0.0 1024802
16:00−28w2783100 0.1 1023846
19:00−29wsw1493100 0.0 1024339
22:00−30w1195100 0.1 102362
2 march, tue
tue201:00−31wnw1197100 0.1 102341
04:00−32wnw1198100 0.1 102330
07:00−32w1198100 0.1 102335
10:00−30wnw1392100 0.2 1023506
13:00−28wnw2484100 0.1 1023861
16:00−28wnw2585100 0.2 1022862
19:00−30w1294100 0.1 102332
22:00−32wnw1196100 0.1 102420
3 march, wed
wed301:00−32wnw1196100 0.0 102324
04:00−33wnw1196100 0.1 102420
07:00−34wnw1196100 0.0 102419
10:00−31w1293100 0.1 1023261
13:00−28w2383100 0.0 1020734
16:00−28wnw2383100 0.1 1019754
19:00−34wnw119293 0.0 101919
22:00−36wnw119690 0.0 102019